This demonstration page uses our WeatherBlox Daily Observations layout. Learn more.

Left ArrowRight Arrow

39.29038, -76.61219

Hourly Observations for February 16, 2017

Temp ( °F °C ) Dew Point ( °F °C ) Humidity (%) Winds ( mph kmh ) Pressure ( in mb ) Visibility ( mi km ) Precip ( " mm )
12:54 am 00:54 undefined 37 2.8 18 -7.8 46 46 undefined N/A 29.63 1003 N/A N/A
1:54 am 01:54 undefined 36 2.2 17 -8.3 46 46 undefined N/A 29.62 1003 N/A N/A
2:54 am 02:54 undefined 35 1.7 18 -7.8 50 50 undefined N/A 29.63 1003 N/A N/A
3:54 am 03:54 undefined 35 1.7 15 -9.4 44 44 undefined N/A 29.65 1004 N/A N/A
4:54 am 04:54 undefined 34 1.1 14 -10 44 44 undefined N/A 29.65 1004 N/A N/A
5:54 am 05:54 undefined 34 1.1 13 -10.6 42 42 undefined N/A 29.67 1005 N/A N/A
6:54 am 06:54 undefined 34 1.1 13 -10.6 42 42 undefined N/A 29.70 1006 N/A N/A
7:54 am 07:54 undefined 34 1.1 13 -10.6 42 42 undefined N/A 29.74 1007 N/A N/A
8:54 am 08:54 undefined 35 1.7 14 -10 42 42 undefined N/A 29.75 1008 N/A N/A
9:54 am 09:54 undefined 36 2.2 13 -10.6 39 39 undefined N/A 29.76 1008 N/A N/A
10:54 am 10:54 undefined 37 2.8 12 -11.1 36 36 undefined N/A 29.76 1008 N/A N/A
11:54 am 11:54 undefined 37 2.8 15 -9.4 41 41 undefined N/A 29.76 1008 N/A N/A
12:54 pm 12:54 undefined 38 3.3 12 -11.1 34 34 undefined N/A 29.76 1008 N/A N/A
1:54 pm 13:54 undefined 39 3.9 12 -11.1 33 33 undefined N/A 29.77 1008 N/A N/A
2:54 pm 14:54 undefined 38 3.3 12 -11.1 34 34 undefined N/A 29.76 1008 N/A N/A
3:54 pm 15:54 undefined 37 2.8 13 -10.6 37 37 undefined N/A 29.77 1008 N/A N/A
4:54 pm 16:54 undefined 37 2.8 13 -10.6 37 37 undefined N/A 29.80 1009 N/A N/A
5:54 pm 17:54 undefined 36 2.2 13 -10.6 39 39 undefined N/A 29.83 1010 N/A N/A
6:54 pm 18:54 undefined 35 1.7 14 -10 42 42 undefined N/A 29.86 1011 N/A N/A
7:54 pm 19:54 undefined 34 1.1 14 -10 44 44 undefined N/A 29.87 1012 N/A N/A
8:54 pm 20:54 undefined 34 1.1 15 -9.4 46 46 undefined N/A 29.88 1012 N/A N/A
9:54 pm 21:54 undefined 33 0.6 15 -9.4 47 47 undefined N/A 29.90 1013 N/A N/A
10:54 pm 22:54 undefined 32 undefined 15 -9.4 50 50 undefined N/A 29.91 1013 N/A N/A
11:54 pm 23:54 undefined 32 undefined 15 -9.4 50 50 undefined N/A 29.92 1013 N/A N/A

Powered by AerisWeather